KLM898 ZBAA-EHAM

Flight info

Callsign KLM898
Flight time N/A
Altitude 34100
Route IDKEX2G IDKEX B339 ASILA A575 UPREK W28 LAGEB W66 NUKTI B215 POVEK/K0907S1100 B215 FKG A368 SARIN/K0904F360 N161 MASAV/K0895F380 N161 GASBI/N0480F380 N161 LEYLA N644 LAGAS N61 NOLGA UN61 TBN UM11 CRM UL746 ODERO DCT OPT DCT ALOXU DCT TUVNU/N0481F400 DCT FOGRE DCT PEPIK DCT LIKSA DCT ELMEK DCT VEXIL DCT KATCE DCT AMSAN T281 NORKU
Aircraft B789/H-SDE1E2E3FGHIJ2J3J4J5M1RWXY/LB1D1

Departure

Time 2026-05-01 08:30
Airport Beijing Capital International Airport (ZBAA)

Arrival

Time N/A
Airport Amsterdam Airport Schiphol (EHAM)
Time Latitude Longitude Altitude Speed Heading
2026-05-01 07:57 40.07527 116.59024 116 ft 0 kts 354°
2026-05-01 08:15 40.07501 116.59029 106 ft 2 kts 351°
2026-05-01 08:15 40.07484 116.59032 112 ft 2 kts 349°
2026-05-01 08:16 40.07468 116.59037 111 ft 2 kts 345°
2026-05-01 08:16 40.07452 116.59039 111 ft 2 kts 11°
2026-05-01 08:16 40.07440 116.59026 111 ft 2 kts 79°
2026-05-01 08:16 40.07439 116.59014 111 ft 1 kts 81°
2026-05-01 08:17 40.07439 116.59013 111 ft 0 kts 82°
2026-05-01 08:19 40.07442 116.59044 111 ft 4 kts 81°
2026-05-01 08:19 40.07448 116.59095 112 ft 7 kts 81°
2026-05-01 08:19 40.07457 116.59170 113 ft 10 kts 83°
2026-05-01 08:19 40.07472 116.59266 115 ft 11 kts 74°
2026-05-01 08:20 40.07487 116.59361 113 ft 9 kts 69°
2026-05-01 08:20 40.07539 116.59399 113 ft 10 kts
2026-05-01 08:20 40.07625 116.59392 112 ft 14 kts 353°
2026-05-01 08:20 40.07730 116.59375 113 ft 15 kts 353°
2026-05-01 08:21 40.07831 116.59360 113 ft 14 kts 353°
2026-05-01 08:21 40.07925 116.59346 114 ft 13 kts 353°
2026-05-01 08:21 40.08013 116.59333 113 ft 12 kts 353°
2026-05-01 08:21 40.08098 116.59319 114 ft 12 kts 353°
2026-05-01 08:22 40.08183 116.59305 113 ft 12 kts 353°
2026-05-01 08:22 40.08269 116.59291 114 ft 13 kts 353°
2026-05-01 08:22 40.08373 116.59275 113 ft 17 kts 353°
2026-05-01 08:22 40.08494 116.59257 112 ft 17 kts 353°
2026-05-01 08:23 40.08611 116.59240 112 ft 16 kts 353°
2026-05-01 08:23 40.08720 116.59222 112 ft 15 kts 353°
2026-05-01 08:23 40.08821 116.59205 112 ft 14 kts 353°
2026-05-01 08:23 40.08916 116.59200 114 ft 13 kts 12°
2026-05-01 08:24 40.08975 116.59267 114 ft 10 kts 67°
2026-05-01 08:24 40.08979 116.59291 114 ft 0 kts 81°
2026-05-01 08:27 40.08980 116.59296 114 ft 2 kts 83°
2026-05-01 08:27 40.08976 116.59345 116 ft 8 kts 107°
2026-05-01 08:28 40.08941 116.59421 113 ft 10 kts 127°
2026-05-01 08:28 40.08890 116.59476 112 ft 9 kts 154°
2026-05-01 08:28 40.08838 116.59500 112 ft 7 kts 164°
2026-05-01 08:28 40.08820 116.59503 114 ft 0 kts 176°
2026-05-01 08:29 40.08763 116.59510 113 ft 32 kts 174°
2026-05-01 08:29 40.08314 116.59580 112 ft 97 kts 173°
2026-05-01 08:29 40.07436 116.59717 115 ft 155 kts 173°
2026-05-01 08:29 40.06199 116.59914 135 ft 196 kts 172°
2026-05-01 08:30 40.04848 116.60149 458 ft 200 kts 169°
2026-05-01 08:30 40.03488 116.60419 1048 ft 192 kts 173°
2026-05-01 08:30 40.02209 116.60554 2087 ft 181 kts 173°
2026-05-01 08:30 40.00889 116.60738 2301 ft 201 kts 171°
2026-05-01 08:31 39.99367 116.60984 2342 ft 239 kts 172°
2026-05-01 08:31 39.97663 116.61251 3087 ft 249 kts 172°
2026-05-01 08:31 39.95925 116.61523 3988 ft 256 kts 172°
2026-05-01 08:31 39.94133 116.61798 4829 ft 262 kts 173°
2026-05-01 08:32 39.92306 116.62084 5701 ft 266 kts 175°
2026-05-01 08:32 39.90453 116.62372 6584 ft 269 kts 176°
2026-05-01 08:32 39.88566 116.62663 7366 ft 274 kts 175°
2026-05-01 08:32 39.87308 116.62997 7744 ft 286 kts 160°
2026-05-01 08:33 39.85614 116.64459 7873 ft 300 kts 133°
2026-05-01 08:33 39.84575 116.66789 7873 ft 300 kts 106°
2026-05-01 08:33 39.84425 116.69484 7881 ft 301 kts 83°
2026-05-01 08:33 39.84826 116.73047 7879 ft 300 kts 82°
2026-05-01 08:34 39.85044 116.74868 7887 ft 301 kts 82°
2026-05-01 08:34 39.85354 116.77557 7880 ft 300 kts 83°
2026-05-01 08:34 39.85645 116.80207 7883 ft 300 kts 83°
2026-05-01 08:34 39.85940 116.82891 7889 ft 300 kts 82°
2026-05-01 08:35 39.86242 116.85591 7885 ft 301 kts 83°
2026-05-01 08:35 39.86541 116.88278 7887 ft 301 kts 83°
2026-05-01 08:35 39.86840 116.90979 7883 ft 301 kts 82°
2026-05-01 08:35 39.87138 116.93673 7887 ft 301 kts 83°
2026-05-01 08:36 39.87435 116.96374 7901 ft 304 kts 83°
2026-05-01 08:36 39.87734 116.99088 8686 ft 301 kts 82°
2026-05-01 08:36 39.88033 117.01808 9486 ft 305 kts 82°
2026-05-01 08:36 39.88336 117.04561 10187 ft 310 kts 81°
2026-05-01 08:37 39.89059 117.07246 10337 ft 332 kts 52°
2026-05-01 08:37 39.90767 117.09364 10510 ft 350 kts 26°
2026-05-01 08:37 39.93108 117.10402 10677 ft 366 kts
2026-05-01 08:37 39.95680 117.10289 11063 ft 372 kts 348°
2026-05-01 08:38 39.98223 117.09619 11874 ft 372 kts 345°
2026-05-01 08:38 40.00774 117.08905 12538 ft 378 kts 347°
2026-05-01 08:38 40.03389 117.08428 13262 ft 382 kts 351°
2026-05-01 08:38 40.06047 117.08056 13933 ft 385 kts 351°
2026-05-01 08:39 40.08682 117.07583 14541 ft 388 kts 348°
2026-05-01 08:39 40.11359 117.07037 15150 ft 391 kts 348°
2026-05-01 08:39 40.14065 117.06522 15759 ft 394 kts 349°
2026-05-01 08:39 40.16796 117.06039 16356 ft 398 kts 349°
2026-05-01 08:40 40.22312 117.05019 17545 ft 403 kts 348°
2026-05-01 08:40 40.25101 117.04495 18151 ft 406 kts 348°
2026-05-01 08:40 40.27918 117.03975 18627 ft 410 kts 348°
2026-05-01 08:41 40.30746 117.03455 19152 ft 412 kts 348°
2026-05-01 08:41 40.33598 117.02928 19635 ft 415 kts 349°
2026-05-01 08:41 40.36495 117.02604 20071 ft 420 kts 351°
2026-05-01 08:41 40.39396 117.02260 20549 ft 422 kts 351°
2026-05-01 08:42 40.42348 117.01900 21031 ft 424 kts 351°
2026-05-01 08:42 40.45309 117.01557 21487 ft 427 kts 351°
2026-05-01 08:42 40.48265 117.01133 21906 ft 427 kts 343°
2026-05-01 08:42 40.51062 117.00051 22332 ft 423 kts 333°
2026-05-01 08:43 40.53671 116.98292 22753 ft 420 kts 323°
2026-05-01 08:43 40.55965 116.95938 23187 ft 418 kts 313°
2026-05-01 08:43 40.57879 116.93067 23580 ft 417 kts 303°
2026-05-01 08:43 40.59587 116.89972 23948 ft 418 kts 304°
2026-05-01 08:44 40.61298 116.86876 24344 ft 418 kts 303°
2026-05-01 08:44 40.62991 116.83774 24739 ft 419 kts 303°
2026-05-01 08:44 40.64697 116.80649 25121 ft 420 kts 303°
2026-05-01 08:44 40.66412 116.77520 25502 ft 420 kts 303°
2026-05-01 08:45 40.68123 116.74394 25871 ft 421 kts 303°
2026-05-01 08:45 40.69838 116.71255 26184 ft 422 kts 303°
2026-05-01 08:45 40.71552 116.68107 26531 ft 423 kts 303°
2026-05-01 08:45 40.73300 116.64984 26859 ft 425 kts 307°
2026-05-01 08:46 40.75374 116.62172 27171 ft 431 kts 315°
2026-05-01 08:46 40.77785 116.59776 27510 ft 437 kts 323°
2026-05-01 08:46 40.80485 116.57881 27812 ft 444 kts 332°
2026-05-01 08:46 40.83395 116.56565 28121 ft 453 kts 340°
2026-05-01 08:47 40.86533 116.55863 28422 ft 463 kts 349°
2026-05-01 08:47 40.89753 116.55554 28655 ft 464 kts 348°
2026-05-01 08:47 40.92988 116.55244 28877 ft 467 kts 349°
2026-05-01 08:47 40.96236 116.54949 29173 ft 468 kts 348°
2026-05-01 08:48 40.99489 116.54653 29433 ft 469 kts 348°
2026-05-01 08:48 41.02756 116.54344 29669 ft 471 kts 348°
2026-05-01 08:48 41.06029 116.54035 29933 ft 471 kts 348°
2026-05-01 08:48 41.09311 116.53728 30087 ft 474 kts 348°
2026-05-01 08:49 41.12568 116.53426 30260 ft 476 kts 348°
2026-05-01 08:49 41.15869 116.53117 30438 ft 477 kts 348°
2026-05-01 08:49 41.19190 116.52802 30627 ft 477 kts 347°
2026-05-01 08:49 41.22436 116.52108 30777 ft 469 kts 338°
2026-05-01 08:50 41.25523 116.50832 30940 ft 461 kts 330°
2026-05-01 08:50 41.28398 116.49025 31103 ft 454 kts 323°
2026-05-01 08:50 41.31108 116.46894 31269 ft 453 kts 322°
2026-05-01 08:50 41.33824 116.44768 31502 ft 452 kts 322°
2026-05-01 08:51 41.36527 116.42635 31761 ft 451 kts 322°
2026-05-01 08:51 41.39216 116.40498 32038 ft 449 kts 322°
2026-05-01 08:51 41.41896 116.38374 32374 ft 447 kts 321°
2026-05-01 08:51 41.44574 116.36255 32629 ft 446 kts 321°
2026-05-01 08:52 41.47239 116.34142 32838 ft 446 kts 321°
2026-05-01 08:52 41.49897 116.32028 33068 ft 445 kts 321°
2026-05-01 08:52 41.52550 116.29919 33316 ft 443 kts 321°
2026-05-01 08:52 41.55201 116.27810 33567 ft 442 kts 321°
2026-05-01 08:53 41.57845 116.25704 33767 ft 442 kts 320°
2026-05-01 08:53 41.60454 116.23623 33940 ft 442 kts 320°
2026-05-01 08:53 41.63099 116.21511 34063 ft 444 kts 320°
2026-05-01 08:53 41.65756 116.19388 34056 ft 446 kts 320°
2026-05-01 08:54 41.71052 116.15158 34050 ft 441 kts 320°
2026-05-01 08:54 41.76298 116.10947 34045 ft 439 kts 320°
2026-05-01 08:55 41.81543 116.06737 34048 ft 439 kts 320°
2026-05-01 08:55 41.86784 116.02520 34050 ft 438 kts 320°
2026-05-01 08:56 41.91946 115.98227 34069 ft 431 kts 314°
2026-05-01 08:56 41.96274 115.92816 34072 ft 420 kts 303°
2026-05-01 08:57 41.99436 115.86382 34070 ft 413 kts 294°
2026-05-01 08:57 42.02204 115.79600 34068 ft 413 kts 294°
2026-05-01 08:58 42.04951 115.72798 34069 ft 414 kts 294°
2026-05-01 08:58 42.07711 115.65969 34073 ft 414 kts 294°
2026-05-01 08:59 42.10458 115.59150 34079 ft 415 kts 294°
2026-05-01 08:59 42.13194 115.52344 34078 ft 416 kts 294°
2026-05-01 09:00 42.15945 115.45483 34077 ft 416 kts 294°
2026-05-01 09:00 42.18693 115.38616 34082 ft 416 kts 294°
2026-05-01 09:01 42.21299 115.31663 34083 ft 412 kts 287°
2026-05-01 09:01 42.22784 115.24244 34081 ft 409 kts 276°
2026-05-01 09:02 42.22945 115.16593 34083 ft 410 kts 265°
2026-05-01 09:02 42.22424 115.08930 34082 ft 410 kts 266°
2026-05-01 09:03 42.21887 115.01251 34084 ft 411 kts 265°
2026-05-01 09:03 42.21346 114.93563 34082 ft 411 kts 265°
2026-05-01 09:04 42.20800 114.85877 34084 ft 411 kts 265°
2026-05-01 09:04 42.20252 114.78232 34080 ft 412 kts 265°
2026-05-01 09:05 42.19694 114.70524 34080 ft 413 kts 265°
2026-05-01 09:05 42.19130 114.62816 34084 ft 413 kts 265°
2026-05-01 09:06 42.18562 114.55109 34079 ft 413 kts 265°
2026-05-01 09:06 42.17988 114.47395 34076 ft 413 kts 265°
2026-05-01 09:07 42.17408 114.39680 34072 ft 413 kts 265°
2026-05-01 09:07 42.16827 114.32013 34074 ft 414 kts 265°
2026-05-01 09:08 42.16237 114.24295 34070 ft 414 kts 265°
2026-05-01 09:08 42.15640 114.16572 34078 ft 414 kts 265°
2026-05-01 09:09 42.15039 114.08844 34073 ft 414 kts 265°
2026-05-01 09:09 42.14432 114.01119 34073 ft 415 kts 265°
2026-05-01 09:10 42.13818 113.93369 34068 ft 416 kts 265°
2026-05-01 09:10 42.13202 113.85659 34071 ft 416 kts 265°
2026-05-01 09:11 42.12577 113.77903 34072 ft 417 kts 264°
2026-05-01 09:11 42.11944 113.70121 34072 ft 418 kts 264°
2026-05-01 09:12 42.11305 113.62328 34075 ft 419 kts 264°
2026-05-01 09:12 42.10660 113.54528 34072 ft 419 kts 264°
2026-05-01 09:13 42.09721 113.46789 34090 ft 420 kts 258°
2026-05-01 09:13 42.08291 113.39145 34084 ft 421 kts 258°
2026-05-01 09:14 42.06850 113.31500 34081 ft 421 kts 258°
2026-05-01 09:14 42.05413 113.23892 34077 ft 421 kts 258°
2026-05-01 09:15 42.03962 113.16247 34078 ft 422 kts 257°
2026-05-01 09:15 42.02508 113.08601 34073 ft 422 kts 257°
2026-05-01 09:16 42.01051 113.00971 34073 ft 422 kts 257°
2026-05-01 09:17 41.98851 112.89510 34067 ft 422 kts 257°
2026-05-01 09:17 41.96640 112.78059 34079 ft 422 kts 257°
2026-05-01 09:18 41.94893 112.66558 34095 ft 420 kts 268°
2026-05-01 09:19 41.95305 112.58714 34102 ft 423 kts 279°
2026-05-01 09:19 41.95762 112.56163 34104 ft 424 kts 283°
2026-05-01 09:20 41.98089 112.44667 34099 ft 425 kts 282°
2026-05-01 09:21 42.01193 112.29323 34106 ft 425 kts 282°
2026-05-01 09:21 42.03505 112.17813 34111 ft 425 kts 282°
2026-05-01 09:22 42.06555 112.02515 34105 ft 424 kts 282°
2026-05-01 09:23 42.08839 111.90987 34100 ft 424 kts 282°
2026-05-01 09:24 42.11108 111.79461 34105 ft 424 kts 282°
2026-05-01 09:25 42.14120 111.64061 34106 ft 425 kts 281°
2026-05-01 09:26 42.16367 111.52497 34108 ft 425 kts 281°
2026-05-01 09:26 42.18600 111.40933 34108 ft 426 kts 281°
2026-05-01 09:27 42.20209 111.29205 34105 ft 422 kts 269°
2026-05-01 09:28 42.19683 111.21381 34102 ft 422 kts 262°
2026-05-01 09:28 42.18855 111.13481 34108 ft 423 kts 262°
2026-05-01 09:29 42.17588 111.01759 34101 ft 423 kts 262°
2026-05-01 09:30 42.16307 110.89972 34113 ft 424 kts 262°
2026-05-01 09:30 42.15009 110.78141 34113 ft 425 kts 262°
2026-05-01 09:31 42.14142 110.70309 34110 ft 425 kts 262°
2026-05-01 09:32 42.12824 110.58500 34116 ft 424 kts 261°
2026-05-01 09:32 42.11496 110.46707 34117 ft 424 kts 261°
2026-05-01 09:33 42.10605 110.38857 34122 ft 424 kts 261°
2026-05-01 09:34 42.09258 110.27081 34124 ft 424 kts 261°
2026-05-01 09:34 42.07904 110.15356 34126 ft 424 kts 261°
2026-05-01 09:35 42.06532 110.03588 34131 ft 424 kts 261°
2026-05-01 09:36 42.05612 109.95751 34131 ft 424 kts 261°
2026-05-01 09:36 42.04686 109.87916 34127 ft 424 kts 261°
2026-05-01 09:37 42.03753 109.80071 34129 ft 424 kts 261°
2026-05-01 09:37 42.02345 109.68311 34128 ft 425 kts 260°
2026-05-01 09:38 42.00929 109.56594 34132 ft 425 kts 260°
2026-05-01 09:39 41.99495 109.44828 34128 ft 425 kts 260°
2026-05-01 09:39 41.98531 109.36982 34127 ft 425 kts 260°
2026-05-01 09:40 41.97076 109.25217 34126 ft 425 kts 260°
2026-05-01 09:41 41.96105 109.17429 34128 ft 425 kts 260°
2026-05-01 09:41 41.94625 109.05639 34134 ft 426 kts 260°
2026-05-01 09:42 41.93634 108.97794 34139 ft 426 kts 259°
2026-05-01 09:43 41.91639 108.82144 34145 ft 426 kts 259°
2026-05-01 09:43 41.90630 108.74296 34144 ft 426 kts 259°
2026-05-01 09:44 41.89106 108.62522 34151 ft 426 kts 259°
2026-05-01 09:45 41.88081 108.54667 34154 ft 427 kts 259°
2026-05-01 09:45 41.86542 108.42940 34164 ft 427 kts 259°
2026-05-01 09:46 41.85506 108.35096 34171 ft 427 kts 259°
2026-05-01 09:46 41.84462 108.27247 34171 ft 427 kts 259°
2026-05-01 09:47 41.83416 108.19416 34180 ft 427 kts 259°
2026-05-01 09:47 41.82361 108.11565 34184 ft 427 kts 259°
2026-05-01 09:48 41.81302 108.03723 34188 ft 427 kts 259°
2026-05-01 09:48 41.80238 107.95887 34191 ft 427 kts 259°
2026-05-01 09:49 41.79173 107.88083 34192 ft 428 kts 259°
2026-05-01 09:49 41.78095 107.80232 34191 ft 428 kts 259°
2026-05-01 09:50 41.77012 107.72382 34194 ft 428 kts 258°
2026-05-01 09:50 41.75925 107.64545 34196 ft 428 kts 258°
2026-05-01 09:51 41.74831 107.56699 34201 ft 428 kts 258°
2026-05-01 09:51 41.73738 107.48901 34199 ft 428 kts 258°
2026-05-01 09:52 41.72636 107.41073 34203 ft 428 kts 258°
2026-05-01 09:52 41.71528 107.33248 34204 ft 428 kts 258°
2026-05-01 09:53 41.70414 107.25422 34209 ft 428 kts 258°
2026-05-01 09:53 41.69294 107.17598 34213 ft 427 kts 258°
2026-05-01 09:54 41.68172 107.09789 34214 ft 427 kts 258°
2026-05-01 09:54 41.67044 107.01982 34219 ft 427 kts 258°
2026-05-01 09:55 41.65915 106.94213 34224 ft 427 kts 258°
2026-05-01 09:55 41.64777 106.86417 34225 ft 426 kts 258°
2026-05-01 09:56 41.63636 106.78635 34229 ft 426 kts 258°
2026-05-01 09:56 41.62494 106.70891 34227 ft 426 kts 258°
2026-05-01 09:57 41.61343 106.63116 34227 ft 426 kts 258°
2026-05-01 09:57 41.60187 106.55352 34231 ft 426 kts 257°
2026-05-01 09:58 41.59024 106.47581 34227 ft 426 kts 257°
2026-05-01 09:58 41.57856 106.39809 34222 ft 426 kts 257°
2026-05-01 09:59 41.56690 106.32087 34225 ft 426 kts 257°
2026-05-01 09:59 41.55513 106.24331 34219 ft 426 kts 257°
2026-05-01 10:00 41.54332 106.16590 34217 ft 426 kts 257°
2026-05-01 10:00 41.52972 106.08906 34226 ft 424 kts 250°
2026-05-01 10:01 41.50807 106.01591 34209 ft 424 kts 248°
2026-05-01 10:01 41.48617 105.94294 34208 ft 423 kts 248°
2026-05-01 10:02 41.46413 105.87017 34210 ft 423 kts 248°
2026-05-01 10:02 41.44223 105.79778 34210 ft 423 kts 248°
2026-05-01 10:03 41.42015 105.72519 34211 ft 422 kts 248°
2026-05-01 10:03 41.39809 105.65272 34207 ft 422 kts 248°
2026-05-01 10:04 41.37970 105.59262 34205 ft 421 kts 247°
2026-05-01 10:04 41.35725 105.52051 34202 ft 421 kts 247°
2026-05-01 10:05 41.33486 105.44832 34203 ft 422 kts 247°
2026-05-01 10:05 41.31236 105.37617 34206 ft 422 kts 247°
2026-05-01 10:06 41.28985 105.30410 34196 ft 421 kts 247°
2026-05-01 10:06 41.26747 105.23266 34196 ft 421 kts 247°
2026-05-01 10:07 41.24488 105.16075 34188 ft 421 kts 247°
2026-05-01 10:07 41.22229 105.08902 34188 ft 421 kts 247°
2026-05-01 10:08 41.18831 104.98147 34188 ft 420 kts 247°
2026-05-01 10:09 41.16566 104.91005 34187 ft 420 kts 247°
2026-05-01 10:09 41.14294 104.83856 34190 ft 420 kts 247°
2026-05-01 10:10 41.12020 104.76723 34183 ft 419 kts 247°
2026-05-01 10:10 41.08673 104.66013 34182 ft 419 kts 248°
2026-05-01 10:11 41.06492 104.58901 34183 ft 419 kts 248°
2026-05-01 10:11 41.04310 104.51733 34188 ft 419 kts 248°
2026-05-01 10:12 41.02118 104.44583 34181 ft 419 kts 248°
2026-05-01 10:13 40.99933 104.33453 34203 ft 422 kts 263°
2026-05-01 10:13 41.00208 104.25649 34198 ft 429 kts 276°
2026-05-01 10:14 41.03011 104.14221 34187 ft 437 kts 284°
2026-05-01 10:14 41.05172 104.06698 34192 ft 437 kts 284°
2026-05-01 10:15 41.07332 103.99174 34187 ft 436 kts 284°
2026-05-01 10:15 41.09483 103.91643 34182 ft 436 kts 284°
2026-05-01 10:16 41.11632 103.84109 34190 ft 436 kts 284°
2026-05-01 10:17 41.14824 103.72869 34187 ft 436 kts 284°
2026-05-01 10:17 41.18016 103.61578 34185 ft 434 kts 284°
2026-05-01 10:18 41.21184 103.50322 34183 ft 434 kts 284°
2026-05-01 10:19 41.23290 103.42818 34177 ft 435 kts 284°
2026-05-01 10:19 41.25399 103.35277 34181 ft 435 kts 284°
2026-05-01 10:20 41.28552 103.23959 34175 ft 435 kts 284°
2026-05-01 10:20 41.30643 103.16424 34170 ft 434 kts 284°
2026-05-01 10:21 41.33770 103.05114 34166 ft 435 kts 284°
2026-05-01 10:22 41.36925 102.93826 34162 ft 436 kts 285°
2026-05-01 10:23 41.40205 102.82538 34148 ft 435 kts 284°
2026-05-01 10:23 41.43455 102.71228 34156 ft 435 kts 284°
2026-05-01 10:24 41.47780 102.56185 34142 ft 434 kts 284°
2026-05-01 10:25 41.52058 102.41229 34139 ft 432 kts 284°
2026-05-01 10:26 41.54192 102.33736 34133 ft 431 kts 284°
2026-05-01 10:27 41.58436 102.18770 34130 ft 430 kts 284°
2026-05-01 10:28 41.61600 102.07555 34121 ft 429 kts 284°
2026-05-01 10:28 41.64737 101.96384 34125 ft 430 kts 284°
2026-05-01 10:29 41.67885 101.85128 34117 ft 431 kts 284°
2026-05-01 10:30 41.72067 101.70097 34118 ft 431 kts 284°
2026-05-01 10:31 41.76238 101.55012 34120 ft 432 kts 284°
2026-05-01 10:32 41.79363 101.43653 34116 ft 433 kts 284°
2026-05-01 10:33 41.83512 101.28485 34108 ft 437 kts 285°
2026-05-01 10:33 41.85049 101.20644 34132 ft 432 kts 273°
2026-05-01 10:34 41.85256 101.16643 34134 ft 429 kts 269°
2026-05-01 10:34 41.85466 101.08642 34121 ft 429 kts 269°
2026-05-01 10:35 41.85747 100.96637 34121 ft 429 kts 269°
2026-05-01 10:35 41.85934 100.88644 34126 ft 429 kts 269°
2026-05-01 10:36 41.86199 100.76654 34128 ft 428 kts 269°
2026-05-01 10:37 41.86368 100.68722 34127 ft 428 kts 269°
2026-05-01 10:37 41.86613 100.56715 34130 ft 429 kts 269°
2026-05-01 10:38 41.86770 100.48710 34134 ft 429 kts 269°
2026-05-01 10:38 41.86921 100.40693 34132 ft 430 kts 269°
2026-05-01 10:39 41.87067 100.32684 34140 ft 430 kts 269°
2026-05-01 10:39 41.87207 100.24646 34134 ft 431 kts 269°
2026-05-01 10:40 41.87343 100.16610 34139 ft 431 kts 269°
2026-05-01 10:40 41.87472 100.08575 34131 ft 431 kts 269°
2026-05-01 10:41 41.87596 100.00527 34137 ft 431 kts 269°
2026-05-01 10:42 41.87770 99.88522 34141 ft 430 kts 269°
2026-05-01 10:42 41.87879 99.80487 34151 ft 430 kts 269°
2026-05-01 10:43 41.87984 99.72464 34143 ft 430 kts 268°
2026-05-01 10:43 41.88082 99.64441 34152 ft 430 kts 268°
2026-05-01 10:44 41.88174 99.56424 34154 ft 429 kts 268°
2026-05-01 10:44 41.88262 99.48411 34162 ft 429 kts 268°
2026-05-01 10:45 41.88343 99.40395 34159 ft 429 kts 268°
2026-05-01 10:45 41.88419 99.32448 34175 ft 428 kts 268°
2026-05-01 10:46 41.88489 99.24461 34172 ft 428 kts 268°
2026-05-01 10:46 41.88553 99.16462 34179 ft 429 kts 268°
2026-05-01 10:47 41.88613 99.08450 34183 ft 429 kts 268°
2026-05-01 10:47 41.88666 99.00421 34186 ft 430 kts 268°
2026-05-01 10:48 41.88715 98.92371 34192 ft 431 kts 268°
2026-05-01 10:48 41.88757 98.84355 34196 ft 432 kts 268°
2026-05-01 10:49 41.88795 98.76271 34205 ft 432 kts 268°
2026-05-01 10:49 41.88821 98.69568 34219 ft 432 kts 268°
2026-05-01 10:50 41.88848 98.61503 34220 ft 432 kts 268°
2026-05-01 10:50 41.88869 98.53444 34229 ft 432 kts 268°
2026-05-01 10:51 41.88885 98.45376 34230 ft 431 kts 268°
2026-05-01 10:51 41.88895 98.37320 34238 ft 431 kts 268°
2026-05-01 10:52 41.88899 98.29326 34246 ft 431 kts 267°
2026-05-01 10:52 41.88898 98.21301 34254 ft 430 kts 267°
2026-05-01 10:53 41.88891 98.13277 34261 ft 429 kts 267°
2026-05-01 10:53 41.88878 98.05279 34274 ft 428 kts 267°
2026-05-01 10:54 41.88860 97.97295 34276 ft 427 kts 267°
2026-05-01 10:54 41.88837 97.89346 34284 ft 426 kts 267°
2026-05-01 10:55 41.88808 97.81388 34288 ft 426 kts 267°
2026-05-01 10:55 41.88774 97.73442 34293 ft 425 kts 267°
2026-05-01 10:56 41.88734 97.65500 34299 ft 425 kts 267°
2026-05-01 10:56 41.88689 97.57625 34304 ft 424 kts 267°
2026-05-01 10:57 41.88639 97.49711 34298 ft 424 kts 267°
2026-05-01 10:57 41.88583 97.41799 34316 ft 423 kts 267°
2026-05-01 10:58 41.88522 97.33910 34318 ft 422 kts 266°
2026-05-01 10:58 41.88455 97.26032 34321 ft 422 kts 266°
2026-05-01 10:59 41.88384 97.18204 34323 ft 421 kts 266°
2026-05-01 10:59 41.88307 97.10353 34327 ft 420 kts 266°
2026-05-01 11:00 41.88225 97.02501 34337 ft 420 kts 266°
2026-05-01 11:00 41.88137 96.94649 34340 ft 421 kts 266°
2026-05-01 11:01 41.88044 96.86793 34340 ft 421 kts 266°
2026-05-01 11:01 41.87946 96.78980 34336 ft 421 kts 266°
2026-05-01 11:02 41.87841 96.71089 34327 ft 420 kts 266°
2026-05-01 11:02 41.87735 96.63311 34344 ft 417 kts 266°
2026-05-01 11:03 41.87619 96.55470 34354 ft 423 kts 266°
2026-05-01 11:03 41.87500 96.47603 34347 ft 424 kts 266°
2026-05-01 11:04 41.87374 96.39704 34359 ft 424 kts 266°
2026-05-01 11:04 41.87242 96.31773 34356 ft 425 kts 266°
2026-05-01 11:05 41.87108 96.23821 34365 ft 426 kts 268°
2026-05-01 11:05 41.87074 96.15848 34358 ft 427 kts 267°
2026-05-01 11:06 41.87024 96.07870 34362 ft 428 kts 268°
2026-05-01 11:06 41.86978 95.99924 34361 ft 428 kts 267°
2026-05-01 11:07 41.86890 95.87908 34359 ft 430 kts 267°
2026-05-01 11:07 41.86825 95.79864 34360 ft 431 kts 267°
2026-05-01 11:08 41.86755 95.71814 34358 ft 432 kts 268°
2026-05-01 11:09 41.86639 95.59764 34349 ft 432 kts 268°
2026-05-01 11:09 41.86555 95.51683 34348 ft 433 kts 268°
2026-05-01 11:10 41.86417 95.39540 34342 ft 435 kts 268°
2026-05-01 11:10 41.86320 95.31437 34333 ft 434 kts 269°
2026-05-01 11:11 41.87118 95.23356 34336 ft 441 kts 283°
2026-05-01 11:11 41.89497 95.15750 34337 ft 451 kts 296°
2026-05-01 11:12 41.93362 95.09007 34323 ft 459 kts 305°
2026-05-01 11:12 41.97574 95.02551 34321 ft 458 kts 306°
2026-05-01 11:13 42.01791 94.96110 34311 ft 458 kts 306°
2026-05-01 11:13 42.05977 94.89681 34308 ft 459 kts 306°
2026-05-01 11:14 42.10186 94.83215 34301 ft 459 kts 306°
2026-05-01 11:14 42.14395 94.76728 34291 ft 460 kts 306°
2026-05-01 11:15 42.18579 94.70270 34285 ft 460 kts 306°
2026-05-01 11:15 42.22790 94.63753 34283 ft 461 kts 306°
2026-05-01 11:16 42.26998 94.57227 34281 ft 461 kts 307°
2026-05-01 11:16 42.31213 94.50676 34276 ft 462 kts 307°
2026-05-01 11:17 42.35419 94.44125 34270 ft 462 kts 307°
2026-05-01 11:17 42.39629 94.37551 34266 ft 462 kts 307°
2026-05-01 11:18 42.43835 94.30970 34262 ft 462 kts 307°
2026-05-01 11:18 42.48016 94.24413 34262 ft 462 kts 307°
2026-05-01 11:19 42.52227 94.17795 34256 ft 463 kts 308°
2026-05-01 11:19 42.56430 94.11175 34257 ft 463 kts 308°
2026-05-01 11:20 42.60628 94.04547 34257 ft 463 kts 308°
2026-05-01 11:20 42.64812 93.97927 34254 ft 462 kts 308°
2026-05-01 11:21 42.68997 93.91289 34251 ft 462 kts 308°
2026-05-01 11:21 42.73168 93.84660 34259 ft 461 kts 308°
2026-05-01 11:22 42.77341 93.78001 34237 ft 465 kts 313°
2026-05-01 11:22 42.81565 93.71273 34265 ft 471 kts 313°
2026-05-01 11:23 42.83525 93.67760 34470 ft 472 kts 303°
2026-05-01 11:23 42.85049 93.63790 34640 ft 475 kts 294°
2026-05-01 11:23 42.86165 93.59544 34755 ft 477 kts 292°
2026-05-01 11:23 42.87246 93.55255 34930 ft 477 kts 291°
2026-05-01 11:24 42.88308 93.50980 35108 ft 476 kts 291°
2026-05-01 11:24 42.89370 93.46705 35283 ft 476 kts 291°
2026-05-01 11:24 42.91504 93.38153 35625 ft 475 kts 291°
2026-05-01 11:25 42.92564 93.33878 35795 ft 475 kts 291°
2026-05-01 11:25 42.94675 93.25341 36114 ft 474 kts 291°
2026-05-01 11:25 42.95732 93.21064 36144 ft 477 kts 291°
2026-05-01 11:26 42.98889 93.08214 36144 ft 473 kts 291°
2026-05-01 11:27 43.00963 92.99747 36147 ft 473 kts 291°
2026-05-01 11:27 43.03040 92.91223 36136 ft 473 kts 291°
2026-05-01 11:28 43.05114 92.82688 36155 ft 472 kts 291°
2026-05-01 11:28 43.07176 92.74168 36153 ft 471 kts 291°
2026-05-01 11:29 43.10255 92.61386 36145 ft 471 kts 291°
2026-05-01 11:30 43.13302 92.48662 36146 ft 471 kts 291°
2026-05-01 11:30 43.15339 92.40117 36148 ft 471 kts 291°
2026-05-01 11:31 43.17367 92.31579 36150 ft 471 kts 290°
2026-05-01 11:31 43.19374 92.23095 36148 ft 471 kts 290°
2026-05-01 11:32 43.21391 92.14541 36146 ft 471 kts 290°
2026-05-01 11:32 43.23402 92.05976 36145 ft 471 kts 290°
2026-05-01 11:33 43.25405 91.97410 36144 ft 471 kts 290°
2026-05-01 11:33 43.27403 91.88835 36140 ft 471 kts 290°
2026-05-01 11:34 43.29382 91.80310 36141 ft 471 kts 290°
2026-05-01 11:34 43.31362 91.71744 36140 ft 470 kts 290°
2026-05-01 11:35 43.33337 91.63172 36148 ft 471 kts 290°
2026-05-01 11:35 43.35306 91.54588 36153 ft 471 kts 290°
2026-05-01 11:36 43.36939 91.47446 36153 ft 471 kts 290°
2026-05-01 11:36 43.39217 91.37441 36166 ft 472 kts 290°
2026-05-01 11:37 43.40843 91.30267 36178 ft 472 kts 290°
2026-05-01 11:37 43.42785 91.21649 36185 ft 471 kts 290°
2026-05-01 11:38 43.44723 91.13024 36198 ft 471 kts 290°
2026-05-01 11:38 43.46653 91.04398 36205 ft 472 kts 289°
2026-05-01 11:39 43.48581 90.95743 36211 ft 472 kts 290°
2026-05-01 11:39 43.50501 90.87092 36215 ft 472 kts 289°
2026-05-01 11:40 43.52403 90.78488 36225 ft 471 kts 289°
2026-05-01 11:40 43.54311 90.69823 36234 ft 473 kts 289°
2026-05-01 11:41 43.56214 90.61142 36235 ft 473 kts 289°
2026-05-01 11:41 43.58115 90.52437 36240 ft 474 kts 289°
2026-05-01 11:42 43.59998 90.43777 36245 ft 473 kts 289°
2026-05-01 11:42 43.61886 90.35058 36249 ft 474 kts 289°
2026-05-01 11:43 43.63760 90.26369 36248 ft 474 kts 289°
2026-05-01 11:43 43.65636 90.17635 36245 ft 474 kts 289°
2026-05-01 11:44 43.68506 90.04581 36243 ft 472 kts 290°
2026-05-01 11:44 43.70447 89.95894 36248 ft 473 kts 290°
2026-05-01 11:45 43.72419 89.87287 36241 ft 472 kts 290°
2026-05-01 11:45 43.74377 89.78609 36235 ft 473 kts 290°
2026-05-01 11:46 43.76335 89.69926 36232 ft 473 kts 290°
2026-05-01 11:46 43.78283 89.61246 36232 ft 472 kts 289°
2026-05-01 11:47 43.80226 89.52555 36234 ft 472 kts 290°
2026-05-01 11:47 43.82221 89.43890 36233 ft 473 kts 290°
2026-05-01 11:48 43.84243 89.35212 36232 ft 474 kts 290°
2026-05-01 11:48 43.86225 89.26558 36236 ft 474 kts 290°
2026-05-01 11:49 43.88231 89.17850 36233 ft 474 kts 290°
2026-05-01 11:49 43.90217 89.09138 36234 ft 473 kts 290°
2026-05-01 11:50 43.92207 89.00407 36243 ft 473 kts 290°
2026-05-01 11:50 43.94171 88.91738 36243 ft 473 kts 290°
2026-05-01 11:51 43.96140 88.83019 36244 ft 473 kts 290°
2026-05-01 11:51 43.98302 88.74401 36245 ft 472 kts 291°
2026-05-01 11:52 44.00453 88.65811 36246 ft 472 kts 292°
2026-05-01 11:52 44.02652 88.57203 36240 ft 472 kts 291°
2026-05-01 11:53 44.04818 88.48573 36236 ft 472 kts 291°
2026-05-01 11:53 44.06991 88.39950 36227 ft 471 kts 291°
2026-05-01 11:54 44.09132 88.31389 36218 ft 472 kts 291°
2026-05-01 11:54 44.11283 88.22770 36209 ft 471 kts 291°
2026-05-01 11:55 44.13425 88.14147 36207 ft 470 kts 291°
2026-05-01 11:55 44.15558 88.05534 36189 ft 470 kts 291°
2026-05-01 11:56 44.18073 87.97195 36210 ft 466 kts 304°
2026-05-01 11:56 44.21885 87.89903 36193 ft 466 kts 308°
2026-05-01 11:57 44.25795 87.82671 36189 ft 466 kts 308°
2026-05-01 11:57 44.29683 87.75433 36188 ft 465 kts 308°
2026-05-01 11:58 44.33536 87.68255 36181 ft 464 kts 308°
2026-05-01 11:59 44.39474 87.57496 36180 ft 466 kts 309°
2026-05-01 11:59 44.43403 87.50289 36182 ft 466 kts 309°
2026-05-01 12:00 44.49289 87.39543 36172 ft 466 kts 309°
2026-05-01 12:01 44.55196 87.28702 36168 ft 466 kts 310°
2026-05-01 12:01 44.59306 87.21642 36182 ft 467 kts 310°
2026-05-01 12:02 44.63393 87.14559 36173 ft 467 kts 310°
2026-05-01 12:02 44.67491 87.07494 36173 ft 466 kts 310°
2026-05-01 12:03 44.71576 87.00397 36169 ft 466 kts 310°
2026-05-01 12:03 44.75650 86.93346 36171 ft 467 kts 310°
2026-05-01 12:04 44.79756 86.86226 36169 ft 468 kts 310°
2026-05-01 12:04 44.83847 86.79108 36169 ft 468 kts 310°
2026-05-01 12:05 44.87892 86.71890 36159 ft 468 kts 309°
2026-05-01 12:05 44.93922 86.61142 36158 ft 467 kts 309°
2026-05-01 12:06 44.97949 86.53914 36157 ft 466 kts 309°
2026-05-01 12:06 45.01970 86.46707 36151 ft 467 kts 309°
2026-05-01 12:07 45.05964 86.39515 36148 ft 467 kts 309°
2026-05-01 12:07 45.09972 86.32286 36145 ft 466 kts 309°
2026-05-01 12:08 45.13974 86.25047 36149 ft 467 kts 309°
2026-05-01 12:08 45.17950 86.17837 36144 ft 466 kts 309°
2026-05-01 12:09 45.21938 86.10587 36136 ft 467 kts 309°
2026-05-01 12:09 45.25937 86.03298 36149 ft 467 kts 309°
2026-05-01 12:10 45.31924 85.92352 36147 ft 467 kts 308°
2026-05-01 12:11 45.37898 85.81386 36146 ft 467 kts 308°
2026-05-01 12:11 45.41850 85.74107 36143 ft 467 kts 308°
2026-05-01 12:12 45.45823 85.66772 36136 ft 467 kts 308°
2026-05-01 12:12 45.49788 85.59434 36139 ft 467 kts 308°
2026-05-01 12:13 45.53754 85.52073 36137 ft 467 kts 308°
2026-05-01 12:13 45.57685 85.44760 36139 ft 467 kts 308°
2026-05-01 12:14 45.61639 85.37384 36140 ft 467 kts 308°
2026-05-01 12:14 45.65596 85.29981 36146 ft 467 kts 308°
2026-05-01 12:15 45.69520 85.22623 36150 ft 468 kts 308°
2026-05-01 12:15 45.73476 85.15238 36156 ft 468 kts 308°
2026-05-01 12:16 45.77448 85.07824 36159 ft 468 kts 308°
2026-05-01 12:16 45.81409 85.00392 36162 ft 469 kts 308°
2026-05-01 12:17 45.85373 84.92949 36162 ft 469 kts 308°
2026-05-01 12:17 45.89330 84.85492 36167 ft 469 kts 308°
2026-05-01 12:18 45.93263 84.78064 36167 ft 469 kts 308°
2026-05-01 12:18 45.97227 84.70554 36167 ft 469 kts 307°
2026-05-01 12:19 46.01141 84.63122 36173 ft 469 kts 307°
2026-05-01 12:19 46.05083 84.55616 36175 ft 469 kts 307°
2026-05-01 12:20 46.09018 84.48103 36170 ft 469 kts 307°
2026-05-01 12:20 46.12937 84.40601 36176 ft 469 kts 307°
2026-05-01 12:21 46.16829 84.33130 36179 ft 468 kts 307°
2026-05-01 12:21 46.20734 84.25614 36177 ft 467 kts 307°
2026-05-01 12:22 46.23989 84.19335 36166 ft 466 kts 307°
2026-05-01 12:22 46.28501 84.10594 36157 ft 466 kts 307°
2026-05-01 12:23 46.32356 84.03049 36150 ft 466 kts 307°
2026-05-01 12:23 46.36212 83.95511 36131 ft 465 kts 307°
2026-05-01 12:24 46.40032 83.88009 36117 ft 465 kts 306°
2026-05-01 12:24 46.43874 83.80450 36106 ft 466 kts 306°
2026-05-01 12:25 46.48987 83.70356 36099 ft 465 kts 306°
2026-05-01 12:26 46.52818 83.62769 36094 ft 466 kts 306°
2026-05-01 12:26 46.58551 83.51376 36095 ft 465 kts 306°
2026-05-01 12:27 46.64281 83.39943 36098 ft 465 kts 306°
2026-05-01 12:28 46.69583 83.28180 36104 ft 466 kts 302°
2026-05-01 12:29 46.74764 83.16193 36109 ft 465 kts 302°
2026-05-01 12:29 46.79935 83.04181 36113 ft 466 kts 302°
2026-05-01 12:30 46.85052 82.92134 36117 ft 464 kts 296°
2026-05-01 12:31 46.87070 82.83276 36125 ft 465 kts 278°
2026-05-01 12:31 46.88044 82.73921 36117 ft 465 kts 279°
2026-05-01 12:32 46.88991 82.64546 36114 ft 465 kts 279°
2026-05-01 12:32 46.90409 82.50525 36113 ft 463 kts 279°
2026-05-01 12:33 46.91334 82.41246 36105 ft 463 kts 279°
2026-05-01 12:33 46.92258 82.31920 36101 ft 463 kts 279°
2026-05-01 12:34 46.93166 82.22665 36091 ft 461 kts 279°
2026-05-01 12:34 46.94071 82.13369 36083 ft 462 kts 279°
2026-05-01 12:35 46.94969 82.04057 36075 ft 461 kts 279°
2026-05-01 12:35 46.95857 81.94765 36071 ft 461 kts 279°
2026-05-01 12:36 46.96735 81.85458 36069 ft 460 kts 278°
2026-05-01 12:36 46.97600 81.76152 36065 ft 460 kts 278°
2026-05-01 12:37 46.98454 81.66912 36060 ft 460 kts 278°
2026-05-01 12:37 46.99304 81.57608 36059 ft 461 kts 278°
2026-05-01 12:38 47.00150 81.48280 36056 ft 460 kts 278°
2026-05-01 12:38 47.00979 81.39047 36057 ft 459 kts 278°
2026-05-01 12:39 47.01806 81.29755 36050 ft 459 kts 278°
2026-05-01 12:39 47.02625 81.20459 36050 ft 460 kts 278°
2026-05-01 12:40 47.03436 81.11166 36046 ft 459 kts 278°
2026-05-01 12:40 47.04234 81.01934 36038 ft 459 kts 278°
2026-05-01 12:41 47.05031 80.92637 36033 ft 459 kts 277°
2026-05-01 12:41 47.05818 80.83358 36032 ft 458 kts 277°
2026-05-01 12:42 47.06598 80.74073 36024 ft 458 kts 277°
2026-05-01 12:42 47.07372 80.64770 36025 ft 459 kts 277°
2026-05-01 12:43 47.08133 80.55529 36020 ft 458 kts 277°
2026-05-01 12:43 47.08893 80.46213 36017 ft 458 kts 277°
2026-05-01 12:44 47.09638 80.36981 36013 ft 458 kts 277°
2026-05-01 12:45 47.11116 80.18366 36006 ft 458 kts 277°
2026-05-01 12:45 47.11845 80.09054 36005 ft 458 kts 277°
2026-05-01 12:46 47.12560 79.99806 36000 ft 458 kts 277°
2026-05-01 12:46 47.13273 79.90493 35999 ft 459 kts 276°
2026-05-01 12:47 47.13985 79.81169 35994 ft 459 kts 277°
2026-05-01 12:47 47.14714 79.71858 35993 ft 459 kts 276°
2026-05-01 12:48 47.15422 79.62533 35994 ft 459 kts 276°
2026-05-01 12:48 47.16127 79.53253 35993 ft 459 kts 276°
2026-05-01 12:49 47.16824 79.43909 35993 ft 459 kts 276°
2026-05-01 12:49 47.17515 79.34571 35989 ft 459 kts 276°
2026-05-01 12:50 47.18198 79.25237 35991 ft 459 kts 276°
2026-05-01 12:50 47.18870 79.15936 35990 ft 459 kts 276°
2026-05-01 12:51 47.19524 79.06573 35993 ft 460 kts 275°
2026-05-01 12:52 47.20477 78.92618 35988 ft 459 kts 275°
2026-05-01 12:52 47.21415 78.78608 35987 ft 458 kts 275°
2026-05-01 12:53 47.22340 78.64578 35989 ft 459 kts 275°
2026-05-01 12:54 47.22943 78.55281 35992 ft 459 kts 275°
2026-05-01 12:54 47.23837 78.41258 35990 ft 458 kts 275°
2026-05-01 12:55 47.24714 78.27243 35994 ft 458 kts 275°
2026-05-01 12:56 47.25288 78.17898 35993 ft 458 kts 275°
2026-05-01 12:56 47.25856 78.08551 35993 ft 458 kts 275°
2026-05-01 12:57 47.26415 77.99202 35986 ft 458 kts 275°
2026-05-01 12:57 47.27237 77.85233 35989 ft 459 kts 275°
2026-05-01 12:58 47.27779 77.75866 35991 ft 459 kts 274°
2026-05-01 12:59 47.28577 77.61800 35991 ft 459 kts 274°
2026-05-01 12:59 47.29360 77.47706 35994 ft 460 kts 274°
2026-05-01 13:00 47.30124 77.33631 35991 ft 461 kts 274°
2026-05-01 13:01 47.30874 77.19492 35993 ft 461 kts 274°
2026-05-01 13:02 47.31626 77.05376 35988 ft 460 kts 278°
2026-05-01 13:07 47.41749 76.02265 35995 ft 463 kts 277°
2026-05-01 13:08 47.42621 75.92890 35993 ft 463 kts 277°
2026-05-01 13:08 47.43491 75.83468 35998 ft 463 kts 277°
2026-05-01 13:09 47.44353 75.74036 35995 ft 463 kts 277°
2026-05-01 13:09 47.45206 75.64609 35992 ft 462 kts 277°
2026-05-01 13:10 47.46044 75.55262 35992 ft 462 kts 277°
2026-05-01 13:10 47.46881 75.45844 35996 ft 461 kts 277°
2026-05-01 13:11 47.47708 75.36454 35994 ft 461 kts 276°
2026-05-01 13:11 47.48527 75.27056 36000 ft 460 kts 276°
2026-05-01 13:12 47.49333 75.17717 36002 ft 460 kts 276°
2026-05-01 13:12 47.50137 75.08316 36006 ft 460 kts 276°
2026-05-01 13:13 47.50932 74.98917 36010 ft 460 kts 276°
2026-05-01 13:13 47.51587 74.91100 36013 ft 460 kts 276°
2026-05-01 13:14 47.52369 74.81698 36011 ft 459 kts 276°
2026-05-01 13:14 47.53266 74.70784 36015 ft 460 kts 276°
2026-05-01 13:15 47.53907 74.62897 36019 ft 460 kts 276°
2026-05-01 13:15 47.54662 74.53522 36014 ft 461 kts 276°
2026-05-01 13:16 47.55414 74.44096 36012 ft 461 kts 275°
2026-05-01 13:16 47.56158 74.34661 36009 ft 461 kts 275°
2026-05-01 13:17 47.57618 74.15861 36003 ft 459 kts 275°
2026-05-01 13:18 47.58692 74.01751 36001 ft 460 kts 275°
2026-05-01 13:18 47.59400 73.92332 36000 ft 459 kts 275°
2026-05-01 13:19 47.60099 73.82918 35994 ft 459 kts 275°
2026-05-01 13:20 47.61128 73.68866 35998 ft 459 kts 274°
2026-05-01 13:20 47.61807 73.59457 35994 ft 459 kts 274°
2026-05-01 13:21 47.62812 73.45334 35993 ft 458 kts 274°
2026-05-01 13:21 47.63466 73.36004 35998 ft 458 kts 274°
2026-05-01 13:22 47.64117 73.26601 36001 ft 458 kts 274°
2026-05-01 13:22 47.64762 73.17174 35998 ft 459 kts 274°
2026-05-01 13:23 47.65399 73.07756 35998 ft 458 kts 274°
2026-05-01 13:23 47.66028 72.98331 35999 ft 458 kts 273°
2026-05-01 13:24 47.66645 72.88980 36000 ft 458 kts 273°
2026-05-01 13:25 47.67560 72.74874 36000 ft 458 kts 273°
2026-05-01 13:25 47.68162 72.65439 36006 ft 458 kts 273°
2026-05-01 13:26 47.68756 72.56025 36006 ft 458 kts 272°
2026-05-01 13:26 47.69338 72.46670 36007 ft 457 kts 272°
2026-05-01 13:27 47.69915 72.37253 36010 ft 458 kts 272°
2026-05-01 13:27 47.70766 72.23153 36008 ft 457 kts 272°
2026-05-01 13:28 47.71601 72.09026 36018 ft 456 kts 272°
2026-05-01 13:29 47.72680 71.90294 36023 ft 456 kts 271°
2026-05-01 13:31 47.73978 71.62095 36023 ft 456 kts 270°
2026-05-01 13:32 47.74917 71.38634 36018 ft 455 kts 270°
2026-05-01 13:33 47.75811 71.15204 36017 ft 455 kts 270°
2026-05-01 13:34 47.76491 70.96448 36025 ft 454 kts 269°
2026-05-01 13:35 47.76981 70.82387 36023 ft 453 kts 269°
2026-05-01 13:36 47.77451 70.68407 36022 ft 452 kts 269°
2026-05-01 13:36 47.77902 70.54412 36018 ft 452 kts 269°
2026-05-01 13:37 47.78193 70.45084 36024 ft 450 kts 269°
2026-05-01 13:37 47.78475 70.35793 36027 ft 450 kts 269°
2026-05-01 13:38 47.78883 70.21871 36021 ft 449 kts 269°
2026-05-01 13:39 47.79146 70.12599 36021 ft 448 kts 269°
2026-05-01 13:39 47.79399 70.03393 36024 ft 447 kts 269°
2026-05-01 13:40 47.79646 69.94145 36018 ft 447 kts 269°
2026-05-01 13:40 47.79886 69.84888 36023 ft 447 kts 269°
2026-05-01 13:41 47.80117 69.75655 36031 ft 446 kts 268°
2026-05-01 13:41 47.80342 69.66439 36030 ft 445 kts 268°
2026-05-01 13:42 47.80557 69.57263 36021 ft 444 kts 268°
2026-05-01 13:42 47.80764 69.48149 36023 ft 443 kts 268°
2026-05-01 13:43 47.80965 69.38987 36044 ft 443 kts 268°
2026-05-01 13:43 47.81159 69.29823 36031 ft 442 kts 268°
2026-05-01 13:44 47.81344 69.20676 36033 ft 442 kts 268°
2026-05-01 13:44 47.81522 69.11586 36034 ft 442 kts 268°
2026-05-01 13:45 47.81693 69.02448 36039 ft 441 kts 268°
2026-05-01 13:45 47.81856 68.93331 36041 ft 441 kts 268°
2026-05-01 13:46 47.82013 68.84195 36041 ft 441 kts 267°
2026-05-01 13:46 47.81479 68.75161 36043 ft 437 kts 259°
2026-05-01 13:47 47.80674 68.66210 36049 ft 436 kts 259°
2026-05-01 13:47 47.79859 68.57276 36047 ft 436 kts 259°
2026-05-01 13:48 47.79043 68.48382 36048 ft 435 kts 259°
2026-05-01 13:48 47.78215 68.39458 36053 ft 435 kts 259°
2026-05-01 13:49 47.77379 68.30520 36052 ft 436 kts 259°
2026-05-01 13:49 47.76538 68.21591 36059 ft 436 kts 259°
2026-05-01 13:50 47.75689 68.12670 36077 ft 436 kts 259°
2026-05-01 13:50 47.74834 68.03747 36082 ft 436 kts 258°
2026-05-01 13:51 47.73976 67.94878 36095 ft 436 kts 258°
2026-05-01 13:51 47.73106 67.85958 36102 ft 436 kts 258°
2026-05-01 13:52 47.72230 67.77057 36103 ft 436 kts 257°
2026-05-01 13:52 47.70965 67.68267 36102 ft 435 kts 255°
2026-05-01 13:53 47.69676 67.59505 36103 ft 434 kts 254°
2026-05-01 13:53 47.67706 67.46386 36096 ft 434 kts 254°
2026-05-01 13:54 47.66387 67.37645 36089 ft 434 kts 254°
2026-05-01 13:54 47.65071 67.28970 36085 ft 433 kts 254°
2026-05-01 13:55 47.63741 67.20249 36087 ft 433 kts 254°
2026-05-01 13:55 47.62406 67.11543 36087 ft 433 kts 253°
2026-05-01 13:56 47.61063 67.02830 36089 ft 433 kts 253°
2026-05-01 13:56 47.59715 66.94136 36098 ft 433 kts 253°
2026-05-01 13:57 47.58588 66.86900 36096 ft 434 kts 253°
2026-05-01 13:57 47.56994 66.76727 36098 ft 433 kts 253°
2026-05-01 13:58 47.55624 66.68091 36098 ft 433 kts 253°
2026-05-01 13:58 47.54183 66.59434 36103 ft 433 kts 252°
2026-05-01 13:59 47.52763 66.50771 36107 ft 433 kts 252°
2026-05-01 13:59 47.51323 66.42117 36110 ft 433 kts 252°
2026-05-01 14:00 47.49882 66.33464 36106 ft 432 kts 252°
2026-05-01 14:00 47.48680 66.26292 36111 ft 432 kts 252°
2026-05-01 14:01 47.47228 66.17662 36107 ft 433 kts 252°
2026-05-01 14:01 47.45768 66.09029 36108 ft 433 kts 252°
2026-05-01 14:02 47.44298 66.00383 36107 ft 433 kts 252°
2026-05-01 14:02 47.42826 65.91762 36111 ft 433 kts 252°
2026-05-01 14:03 47.41353 65.83184 36119 ft 435 kts 252°
2026-05-01 14:03 47.39930 65.74469 36120 ft 436 kts 253°
2026-05-01 14:04 47.38492 65.65786 36124 ft 435 kts 252°
2026-05-01 14:04 47.37054 65.57146 36122 ft 435 kts 253°
2026-05-01 14:05 47.35605 65.48467 36123 ft 436 kts 253°
2026-05-01 14:05 47.34141 65.39762 36129 ft 437 kts 253°
2026-05-01 14:06 47.32673 65.31058 36131 ft 437 kts 253°
2026-05-01 14:06 47.31194 65.22352 36130 ft 438 kts 253°
2026-05-01 14:07 47.29709 65.13639 36127 ft 439 kts 253°
2026-05-01 14:08 47.27465 65.00563 36131 ft 439 kts 253°
2026-05-01 14:08 47.25957 64.91841 36133 ft 440 kts 253°
2026-05-01 14:09 47.24447 64.83154 36137 ft 441 kts 253°
2026-05-01 14:09 47.22920 64.74411 36140 ft 441 kts 253°
2026-05-01 14:10 47.21384 64.65662 36141 ft 441 kts 253°
2026-05-01 14:10 47.19846 64.56940 36141 ft 440 kts 253°
2026-05-01 14:11 47.18301 64.48211 36142 ft 441 kts 253°
2026-05-01 14:11 47.15990 64.35179 36145 ft 441 kts 253°
2026-05-01 14:12 47.14432 64.26453 36147 ft 442 kts 253°
2026-05-01 14:12 47.12863 64.17706 36148 ft 442 kts 253°
2026-05-01 14:13 47.11554 64.10444 36153 ft 442 kts 253°
2026-05-01 14:13 47.09717 64.00302 36154 ft 443 kts 253°
2026-05-01 14:14 47.08129 63.91577 36157 ft 443 kts 253°
2026-05-01 14:14 47.06533 63.82853 36155 ft 443 kts 253°
2026-05-01 14:15 47.04929 63.74122 36156 ft 443 kts 253°
2026-05-01 14:15 47.03321 63.65412 36150 ft 442 kts 253°
2026-05-01 14:16 47.01705 63.56702 36143 ft 443 kts 253°
2026-05-01 14:16 47.00082 63.47992 36162 ft 443 kts 253°
2026-05-01 14:17 46.98449 63.39272 36166 ft 444 kts 253°
2026-05-01 14:17 46.96818 63.30603 36162 ft 444 kts 253°
2026-05-01 14:18 46.95175 63.21907 36162 ft 443 kts 253°
2026-05-01 14:18 46.93801 63.14669 36153 ft 444 kts 253°
2026-05-01 14:19 46.91860 63.04486 36170 ft 444 kts 253°
2026-05-01 14:19 46.90192 62.95783 36176 ft 444 kts 253°
2026-05-01 14:20 46.87689 62.82796 36184 ft 444 kts 253°
2026-05-01 14:21 46.86003 62.74098 36176 ft 444 kts 253°
2026-05-01 14:21 46.84315 62.65421 36178 ft 443 kts 253°
2026-05-01 14:22 46.81774 62.52444 36186 ft 444 kts 253°
2026-05-01 14:22 46.80069 62.43775 36184 ft 443 kts 252°
2026-05-01 14:23 46.78371 62.35189 36187 ft 443 kts 252°
2026-05-01 14:23 46.76653 62.26534 36187 ft 443 kts 252°
2026-05-01 14:24 46.74932 62.17904 36188 ft 444 kts 252°
2026-05-01 14:24 46.73201 62.09259 36195 ft 443 kts 252°
2026-05-01 14:25 46.71464 62.00628 36190 ft 444 kts 252°
2026-05-01 14:25 46.69721 61.92001 36197 ft 444 kts 252°
2026-05-01 14:26 46.67094 61.79069 36197 ft 444 kts 252°
2026-05-01 14:27 46.65347 61.70514 36199 ft 443 kts 252°
2026-05-01 14:27 46.63581 61.61909 36201 ft 444 kts 252°
2026-05-01 14:28 46.60920 61.49005 36204 ft 443 kts 252°
2026-05-01 14:28 46.59140 61.40420 36210 ft 443 kts 252°
2026-05-01 14:29 46.57350 61.31824 36215 ft 443 kts 252°
2026-05-01 14:30 46.53749 61.14644 36212 ft 445 kts 252°
2026-05-01 14:31 46.51043 61.01824 36214 ft 444 kts 252°
2026-05-01 14:31 46.49221 60.93241 36210 ft 445 kts 252°
2026-05-01 14:32 46.47394 60.84664 36216 ft 445 kts 252°
2026-05-01 14:32 46.45559 60.76090 36219 ft 444 kts 252°
2026-05-01 14:33 46.43732 60.67591 36222 ft 444 kts 252°
2026-05-01 14:33 46.41887 60.59041 36231 ft 444 kts 252°
2026-05-01 14:34 46.40035 60.50493 36221 ft 444 kts 252°
2026-05-01 14:34 46.38179 60.41964 36220 ft 444 kts 252°
2026-05-01 14:35 46.36319 60.33447 36228 ft 443 kts 252°
2026-05-01 14:35 46.34462 60.24982 36223 ft 444 kts 252°
2026-05-01 14:36 46.32588 60.16471 36232 ft 444 kts 252°
2026-05-01 14:36 46.30707 60.07966 36232 ft 444 kts 252°
2026-05-01 14:37 46.28815 59.99445 36229 ft 444 kts 251°
2026-05-01 14:37 46.26918 59.90935 36238 ft 444 kts 251°
2026-05-01 14:38 46.25028 59.82491 36233 ft 444 kts 251°
2026-05-01 14:38 46.23118 59.73993 36236 ft 444 kts 251°
2026-05-01 14:39 46.21193 59.65490 36234 ft 444 kts 251°
2026-05-01 14:39 46.19257 59.57016 36245 ft 444 kts 251°
2026-05-01 14:40 46.17335 59.48607 36243 ft 444 kts 251°
2026-05-01 14:40 46.15391 59.40152 36239 ft 444 kts 251°
2026-05-01 14:41 46.13438 59.31684 36240 ft 444 kts 251°
2026-05-01 14:41 46.11479 59.23228 36248 ft 445 kts 251°
2026-05-01 14:42 46.09513 59.14770 36245 ft 444 kts 251°
2026-05-01 14:42 46.07542 59.06324 36250 ft 445 kts 251°
2026-05-01 14:43 46.05564 58.97881 36251 ft 445 kts 251°
2026-05-01 14:43 46.03576 58.89428 36248 ft 446 kts 251°
2026-05-01 14:44 46.01581 58.80979 36253 ft 445 kts 251°
2026-05-01 14:44 45.98582 58.68338 36249 ft 445 kts 251°
2026-05-01 14:45 45.95572 58.55722 36250 ft 445 kts 251°
2026-05-01 14:46 45.93559 58.47327 36246 ft 443 kts 251°
2026-05-01 14:46 45.90541 58.34795 36248 ft 444 kts 251°
2026-05-01 14:47 45.88516 58.26427 36250 ft 444 kts 251°
2026-05-01 14:48 45.85796 58.15235 36256 ft 444 kts 251°
2026-05-01 14:48 45.82737 58.02718 36250 ft 445 kts 251°
2026-05-01 14:49 45.78621 57.85980 36249 ft 445 kts 251°
2026-05-01 14:50 45.74489 57.69301 36255 ft 446 kts 251°
2026-05-01 14:51 45.71354 57.56731 36263 ft 446 kts 251°
2026-05-01 14:52 45.68209 57.44189 36263 ft 446 kts 251°
2026-05-01 14:53 45.65069 57.31736 36258 ft 445 kts 251°
2026-05-01 14:53 45.62963 57.23418 36258 ft 445 kts 250°
2026-05-01 14:54 45.60846 57.15093 36261 ft 446 kts 250°
2026-05-01 14:54 45.58720 57.06757 36258 ft 446 kts 250°
2026-05-01 14:55 45.56592 56.98447 36260 ft 445 kts 250°
2026-05-01 14:55 45.54459 56.90146 36259 ft 446 kts 250°
2026-05-01 14:56 45.52316 56.81833 36261 ft 447 kts 250°
2026-05-01 14:56 45.50176 56.73564 36264 ft 447 kts 250°
2026-05-01 14:57 45.48013 56.65238 36270 ft 447 kts 250°
2026-05-01 14:57 45.44767 56.52793 36259 ft 446 kts 250°
2026-05-01 14:58 45.42601 56.44527 36259 ft 445 kts 250°
2026-05-01 14:58 45.40427 56.36260 36259 ft 446 kts 250°
2026-05-01 14:59 45.38244 56.27986 36253 ft 446 kts 250°
2026-05-01 14:59 45.36058 56.19732 36253 ft 445 kts 250°
2026-05-01 15:00 45.32780 56.07408 36256 ft 446 kts 250°
2026-05-01 15:01 45.30582 55.99178 36252 ft 445 kts 250°
2026-05-01 15:01 45.28375 55.90941 36255 ft 446 kts 250°
2026-05-01 15:02 45.26165 55.82726 36251 ft 445 kts 250°
2026-05-01 15:02 45.23947 55.74506 36249 ft 445 kts 250°
2026-05-01 15:03 45.21726 55.66308 36256 ft 445 kts 250°
2026-05-01 15:03 45.19511 55.58156 36252 ft 446 kts 250°
2026-05-01 15:04 45.17272 55.49945 36254 ft 446 kts 249°
2026-05-01 15:04 45.15023 55.41725 36252 ft 446 kts 249°
2026-05-01 15:05 45.12776 55.33538 36249 ft 446 kts 249°
2026-05-01 15:05 45.10535 55.25404 36251 ft 446 kts 249°
2026-05-01 15:06 45.07642 55.17646 36264 ft 449 kts 234°
2026-05-01 15:06 45.03259 55.11291 36250 ft 453 kts 225°
2026-05-01 15:07 44.98610 55.05252 36261 ft 453 kts 225°
2026-05-01 15:07 44.93944 54.99216 36252 ft 454 kts 225°
2026-05-01 15:08 44.89311 54.93229 36243 ft 454 kts 225°
2026-05-01 15:08 44.84651 54.87227 36246 ft 453 kts 225°
2026-05-01 15:09 44.79987 54.81229 36242 ft 454 kts 225°
2026-05-01 15:09 44.75315 54.75237 36245 ft 454 kts 225°
2026-05-01 15:10 44.70644 54.69259 36239 ft 454 kts 225°
2026-05-01 15:10 44.64259 54.59631 36247 ft 450 kts 237°
2026-05-01 15:11 44.58858 54.48805 36234 ft 451 kts 237°
2026-05-01 15:12 44.55269 54.41597 36244 ft 451 kts 236°
2026-05-01 15:12 44.49865 54.30806 36236 ft 450 kts 236°
2026-05-01 15:14 44.40855 54.12892 36229 ft 450 kts 236°
2026-05-01 15:14 44.35428 54.02157 36239 ft 451 kts 236°
2026-05-01 15:15 44.28187 53.87894 36226 ft 451 kts 236°
2026-05-01 15:16 44.20928 53.73667 36228 ft 449 kts 236°
2026-05-01 15:18 44.11824 53.55920 36218 ft 450 kts 236°
2026-05-01 15:19 44.04514 53.41748 36209 ft 451 kts 236°
2026-05-01 15:19 43.99019 53.31140 36223 ft 452 kts 236°
2026-05-01 15:20 43.93493 53.20511 36206 ft 453 kts 235°
2026-05-01 15:21 43.89800 53.13429 36219 ft 453 kts 235°
2026-05-01 15:21 43.86099 53.06351 36216 ft 453 kts 235°
2026-05-01 15:22 43.80565 52.95804 36218 ft 453 kts 235°
2026-05-01 15:22 43.76849 52.88741 36211 ft 453 kts 235°
2026-05-01 15:23 43.73134 52.81700 36213 ft 452 kts 235°
2026-05-01 15:23 43.69426 52.74687 36207 ft 452 kts 235°
2026-05-01 15:24 43.65704 52.67665 36207 ft 453 kts 235°
2026-05-01 15:24 43.61993 52.60705 36206 ft 453 kts 234°
2026-05-01 15:25 43.58239 52.53685 36205 ft 454 kts 234°
2026-05-01 15:25 43.54488 52.46683 36205 ft 454 kts 234°
2026-05-01 15:26 43.50736 52.39699 36204 ft 453 kts 234°
2026-05-01 15:26 43.46977 52.32717 36202 ft 453 kts 234°
2026-05-01 15:27 43.43244 52.25801 36196 ft 453 kts 234°
2026-05-01 15:28 43.37591 52.15356 36199 ft 453 kts 234°
2026-05-01 15:28 43.33818 52.08406 36196 ft 453 kts 234°
2026-05-01 15:29 43.28181 51.98054 36194 ft 450 kts 234°
2026-05-01 15:30 43.21308 51.85480 36194 ft 451 kts 234°
2026-05-01 15:31 43.09341 51.63713 36196 ft 452 kts 233°
2026-05-01 15:32 43.01738 51.49968 36198 ft 452 kts 233°
2026-05-01 15:34 42.90955 51.30580 36197 ft 453 kts 233°